UAL2240 KCOS-KDEN

Flight info

Callsign UAL2240
Flight time N/A
Altitude 15000
Route BRK/N0351F140 FQF
Aircraft B738/M-SDE2E3FGHIRWXY/LB1

Departure

Time 2026-05-06 01:19
Airport City of Colorado Springs Municipal Airport (KCOS)

Arrival

Time N/A
Airport Denver International Airport (KDEN)
Time Latitude Longitude Altitude Speed Heading
2026-05-06 00:53 38.79974 -104.70019 6120 ft 0 kts 259°
2026-05-06 01:01 38.79975 -104.70010 6120 ft 1 kts 272°
2026-05-06 01:02 38.79972 -104.69993 6121 ft 2 kts 290°
2026-05-06 01:02 38.79970 -104.69976 6122 ft 1 kts 257°
2026-05-06 01:02 38.79975 -104.69961 6123 ft 1 kts 253°
2026-05-06 01:02 38.79977 -104.69944 6124 ft 1 kts 284°
2026-05-06 01:03 38.79971 -104.69930 6125 ft 1 kts 318°
2026-05-06 01:03 38.79960 -104.69923 6125 ft 1 kts 351°
2026-05-06 01:03 38.79955 -104.69922 6125 ft 0 kts
2026-05-06 01:10 38.79965 -104.69922 6125 ft 8 kts
2026-05-06 01:11 38.80062 -104.69923 6125 ft 5 kts 350°
2026-05-06 01:11 38.80064 -104.69924 6125 ft 0 kts 349°
2026-05-06 01:11 38.80070 -104.69932 6124 ft 4 kts 297°
2026-05-06 01:12 38.80072 -104.70028 6119 ft 9 kts 268°
2026-05-06 01:12 38.80096 -104.70076 6117 ft 7 kts 346°
2026-05-06 01:12 38.80172 -104.70088 6117 ft 17 kts 358°
2026-05-06 01:12 38.80315 -104.70090 6117 ft 13 kts
2026-05-06 01:13 38.80355 -104.70042 6119 ft 12 kts 72°
2026-05-06 01:13 38.80361 -104.69894 6125 ft 19 kts 91°
2026-05-06 01:13 38.80361 -104.69750 6130 ft 14 kts 90°
2026-05-06 01:13 38.80358 -104.69573 6137 ft 25 kts 91°
2026-05-06 01:14 38.80360 -104.69209 6155 ft 0 kts 89°
2026-05-06 01:15 38.80360 -104.69134 6158 ft 25 kts 90°
2026-05-06 01:15 38.80374 -104.68881 6164 ft 10 kts 52°
2026-05-06 01:15 38.80380 -104.68872 6164 ft 3 kts 52°
2026-05-06 01:15 38.80426 -104.68806 6169 ft 16 kts 32°
2026-05-06 01:16 38.80593 -104.68786 6175 ft 32 kts
2026-05-06 01:16 38.80838 -104.68789 6178 ft 30 kts 359°
2026-05-06 01:16 38.81041 -104.68784 6177 ft 28 kts
2026-05-06 01:16 38.81236 -104.68783 6172 ft 28 kts
2026-05-06 01:17 38.81421 -104.68784 6167 ft 15 kts 359°
2026-05-06 01:17 38.81498 -104.68784 6165 ft 10 kts 360°
2026-05-06 01:17 38.81569 -104.68776 6164 ft 9 kts 21°
2026-05-06 01:17 38.81593 -104.68722 6165 ft 5 kts 74°
2026-05-06 01:18 38.81600 -104.68642 6166 ft 16 kts 88°
2026-05-06 01:18 38.81528 -104.68569 6170 ft 14 kts 180°
2026-05-06 01:18 38.81267 -104.68572 6179 ft 66 kts 178°
2026-05-06 01:18 38.80609 -104.68574 6179 ft 121 kts 179°
2026-05-06 01:19 38.79572 -104.68580 6124 ft 171 kts 178°
2026-05-06 01:19 38.78299 -104.68579 6276 ft 192 kts 179°
2026-05-06 01:19 38.76955 -104.68620 6914 ft 193 kts 181°
2026-05-06 01:19 38.75652 -104.68742 7564 ft 192 kts 184°
2026-05-06 01:20 38.74282 -104.68793 8003 ft 201 kts 176°
2026-05-06 01:20 38.72831 -104.68610 8296 ft 220 kts 168°
2026-05-06 01:20 38.71180 -104.68077 8012 ft 267 kts 161°
2026-05-06 01:20 38.69495 -104.67275 9129 ft 250 kts 155°
2026-05-06 01:21 38.68002 -104.66138 9645 ft 262 kts 141°
2026-05-06 01:21 38.66753 -104.64346 10031 ft 277 kts 124°
2026-05-06 01:21 38.65900 -104.62148 10861 ft 276 kts 110°
2026-05-06 01:21 38.65485 -104.59745 11390 ft 287 kts 94°
2026-05-06 01:22 38.65823 -104.57259 12000 ft 291 kts 65°
2026-05-06 01:22 38.67057 -104.55227 12613 ft 292 kts 36°
2026-05-06 01:22 38.68821 -104.53906 12949 ft 296 kts 22°
2026-05-06 01:22 38.70670 -104.52815 12951 ft 293 kts 21°
2026-05-06 01:23 38.72524 -104.51747 12947 ft 291 kts 21°
2026-05-06 01:23 38.74373 -104.50655 12958 ft 296 kts 22°
2026-05-06 01:23 38.76313 -104.49482 12970 ft 322 kts 22°
2026-05-06 01:23 38.78426 -104.48189 12960 ft 349 kts 23°
2026-05-06 01:24 38.80690 -104.46793 12957 ft 365 kts 23°
2026-05-06 01:24 38.82977 -104.45372 12958 ft 366 kts 23°
2026-05-06 01:24 38.85272 -104.43941 12960 ft 366 kts 24°
2026-05-06 01:24 38.87580 -104.42503 12958 ft 366 kts 23°
2026-05-06 01:25 38.89874 -104.41083 12964 ft 364 kts 22°
2026-05-06 01:25 38.92202 -104.39894 12956 ft 361 kts 12°
2026-05-06 01:25 38.94669 -104.39377 12953 ft 360 kts
2026-05-06 01:25 38.97190 -104.39282 12949 ft 359 kts 356°
2026-05-06 01:26 38.99690 -104.39310 12943 ft 362 kts 356°
2026-05-06 01:26 39.02226 -104.39320 12947 ft 360 kts 357°
2026-05-06 01:26 39.04743 -104.39273 12952 ft 362 kts 358°
2026-05-06 01:26 39.07255 -104.39185 12937 ft 362 kts 359°
2026-05-06 01:27 39.09774 -104.39069 12929 ft 361 kts 359°
2026-05-06 01:27 39.12273 -104.38942 12927 ft 364 kts 359°
2026-05-06 01:27 39.14893 -104.38809 12918 ft 381 kts 359°
2026-05-06 01:27 39.17578 -104.38668 12910 ft 387 kts 359°
2026-05-06 01:28 39.20254 -104.38356 12922 ft 388 kts
2026-05-06 01:28 39.22843 -104.37418 12927 ft 391 kts 21°
2026-05-06 01:28 39.25226 -104.35637 12929 ft 393 kts 33°
2026-05-06 01:28 39.27427 -104.33534 12924 ft 395 kts 37°
2026-05-06 01:29 39.29573 -104.31328 12919 ft 394 kts 37°
2026-05-06 01:29 39.31736 -104.29099 12927 ft 395 kts 36°
2026-05-06 01:29 39.34060 -104.27259 12920 ft 391 kts 20°
2026-05-06 01:29 39.36665 -104.26544 12932 ft 385 kts 358°
2026-05-06 01:30 39.39269 -104.27203 12932 ft 378 kts 334°
2026-05-06 01:30 39.41430 -104.29050 12934 ft 372 kts 315°
2026-05-06 01:30 39.43252 -104.31437 12935 ft 370 kts 310°
2026-05-06 01:30 39.45024 -104.33873 12932 ft 370 kts 311°
2026-05-06 01:31 39.46858 -104.36249 12928 ft 370 kts 314°
2026-05-06 01:31 39.48749 -104.38555 12939 ft 371 kts 314°
2026-05-06 01:31 39.50406 -104.41041 12933 ft 367 kts 303°
2026-05-06 01:31 39.51767 -104.43833 12752 ft 365 kts 298°
2026-05-06 01:32 39.52998 -104.46677 12447 ft 349 kts 297°
2026-05-06 01:32 39.54135 -104.49346 12187 ft 327 kts 297°
2026-05-06 01:32 39.55201 -104.51856 11914 ft 309 kts 297°
2026-05-06 01:32 39.56208 -104.54227 11635 ft 293 kts 297°
2026-05-06 01:33 39.57160 -104.56474 11361 ft 282 kts 298°
2026-05-06 01:33 39.58094 -104.58694 11082 ft 275 kts 297°
2026-05-06 01:33 39.58987 -104.60854 10633 ft 271 kts 295°
2026-05-06 01:33 39.59498 -104.63148 10132 ft 267 kts 274°
2026-05-06 01:34 39.59611 -104.65572 9657 ft 267 kts 277°
2026-05-06 01:34 39.60215 -104.67837 9113 ft 267 kts 305°
2026-05-06 01:34 39.61528 -104.69408 8933 ft 250 kts 336°
2026-05-06 01:34 39.63168 -104.69816 8943 ft 237 kts 11°
2026-05-06 01:35 39.64685 -104.69070 8944 ft 230 kts 31°
2026-05-06 01:35 39.66025 -104.68057 8871 ft 214 kts 29°
2026-05-06 01:35 39.67339 -104.67305 8796 ft 205 kts 18°
2026-05-06 01:35 39.68742 -104.66793 8624 ft 210 kts 15°
2026-05-06 01:36 39.70157 -104.66340 8247 ft 210 kts 12°
2026-05-06 01:36 39.71614 -104.66132 7867 ft 209 kts
2026-05-06 01:36 39.73052 -104.66166 7506 ft 203 kts 359°
2026-05-06 01:36 39.74421 -104.66176 7146 ft 188 kts
2026-05-06 01:37 39.75684 -104.66139 6848 ft 171 kts
2026-05-06 01:37 39.76789 -104.66127 6891 ft 153 kts
2026-05-06 01:37 39.77907 -104.66136 6729 ft 166 kts 360°
2026-05-06 01:37 39.79104 -104.66164 6143 ft 168 kts 359°
2026-05-06 01:38 39.80224 -104.66109 5831 ft 155 kts
2026-05-06 01:38 39.81303 -104.66030 5639 ft 155 kts 359°
2026-05-06 01:38 39.82365 -104.66086 5624 ft 149 kts
2026-05-06 01:38 39.83437 -104.66071 5506 ft 154 kts 359°
2026-05-06 01:39 39.84508 -104.66040 5400 ft 153 kts
2026-05-06 01:39 39.85621 -104.66015 5390 ft 167 kts
2026-05-06 01:39 39.86658 -104.65992 5376 ft 124 kts